SV2BBO-11 Weather Reports


Display with metric or nautical units.
time (UTC)temp
F
wind
direction
speed
MPH
gust
MPH
rain 1hr
in
rain 24hr
in
rain mn
in
humidity
%
barometer
mb
20260509050637 60 0 0.0 0.0 0.00 0.00 0.00 89 1014.9
20260509050137 60 0 0.0 0.0 0.00 0.00 0.00 89 1014.8
20260509044137 60 0 0.0 0.0 0.00 0.00 0.00 89 1014.8
20260509042637 59 0 0.0 0.0 0.00 0.00 0.00 90 1014.6
20260509042137 59 0 0.0 0.0 0.00 0.00 0.00 90 1014.6
20260509041137 59 0 0.0 0.0 0.00 0.00 0.00 89 1014.7
20260509040637 59 0 0.0 0.0 0.00 0.00 0.00 89 1014.7
20260509040137 59 0 0.0 0.0 0.00 0.00 0.00 89 1014.6
20260509035637 59 0 0.0 0.0 0.00 0.00 0.00 89 1014.7
20260509035137 59 0 0.0 0.0 0.00 0.00 0.00 89 1014.7
20260509000145 60 0 0.0 1.0 0.00 0.00 0.00 89 1015.3
20260508235645 60 0 0.0 1.0 0.00 0.00 0.00 89 1015.4
20260508234711 60 0 0.0 0.0 0.00 0.00 0.00 89 1015.4
20260508234211 60 0 0.0 0.0 0.00 0.00 0.00 89 1015.5
20260508231211 60 0 0.0 0.0 0.00 0.00 0.00 89 1015.6
20260508230711 60 0 0.0 0.0 0.00 0.00 0.00 89 1015.6
20260508225211 60 0 0.0 0.0 0.00 0.00 0.00 89 1015.8
20260508224711 60 0 0.0 0.0 0.00 0.00 0.00 88 1015.9
20260508222037 60 0 0.0 0.0 0.00 0.00 0.00 88 1016.1
20260508221537 60 0 0.0 0.0 0.00 0.00 0.00 88 1016.2
20260508210537 61 0 0.0 0.0 0.00 0.00 0.00 88 1016.5
20260508201037 61 0 0.0 0.0 0.00 0.00 0.00 88 1016.5
20260508195000 61 0 0.0 0.0 0.00 0.00 0.00 87 1016.4
20260508194500 61 0 0.0 0.0 0.00 0.00 0.00 87 1016.4
20260508194000 61 0 0.0 0.0 0.00 0.00 0.00 87 1016.5
20260508192237 61 0 0.0 0.0 0.00 0.00 0.00 87 1016.2
20260508173220 62 0 0.0 2.0 0.00 0.00 0.00 85 1015.0
20260508172220 62 0 0.0 1.0 0.00 0.00 0.00 85 1015.0
20260508164101 63 0 0.0 0.0 0.00 0.00 0.00 84 1015.0
20260508103737 65 0 0.0 1.0 0.00 0.00 0.00 84 1017.4
20260508084737 66 0 0.0 1.0 0.00 0.00 0.00 75 1017.6
20260508064237 64 0 0.0 1.0 0.00 0.00 0.00 77 1017.3